VTK501 OLBA-EGLL

Flight info

Callsign VTK501
Flight time N/A
Altitude 36000
Route KAD UB15 BALMA DCT VESAR UB545 OKLAM UL619 OSVEL UQ23 OSDAN UQ26 TUDBU DCT NAVOD DCT BACAM DCT SODGO DCT GUPRO DCT DIDIX DCT ARSIN DCT PEROL DCT RENKA DCT PETIX DCT BOMBI DCT ADKUV DCT SOGRI DCT DENUT L608 LOGAN
Aircraft MD11/H-SDE1E2E3FGHIJ2J3J4J5M1RWXY/LB1D1

Departure

Time 2026-05-08 08:53
Airport Beirut Rafic Hariri International Airport (OLBA)

Arrival

Time N/A
Airport London Heathrow Airport (EGLL)
Time Latitude Longitude Altitude Speed Heading
2026-05-08 08:22 33.82529 35.49568 29 ft 0 kts 300°
2026-05-08 08:40 33.82518 35.49592 25 ft 4 kts 300°
2026-05-08 08:41 33.82505 35.49621 25 ft 4 kts 300°
2026-05-08 08:41 33.82494 35.49645 27 ft 4 kts 275°
2026-05-08 08:41 33.82501 35.49671 26 ft 4 kts 222°
2026-05-08 08:41 33.82515 35.49684 27 ft 0 kts 214°
2026-05-08 08:47 33.82494 35.49667 27 ft 7 kts 214°
2026-05-08 08:48 33.82433 35.49616 28 ft 15 kts 214°
2026-05-08 08:48 33.82329 35.49530 27 ft 21 kts 214°
2026-05-08 08:48 33.82194 35.49418 26 ft 25 kts 214°
2026-05-08 08:48 33.82047 35.49295 26 ft 27 kts 215°
2026-05-08 08:49 33.81888 35.49161 28 ft 29 kts 215°
2026-05-08 08:49 33.81712 35.49060 26 ft 27 kts 179°
2026-05-08 08:49 33.81540 35.49057 25 ft 22 kts 195°
2026-05-08 08:49 33.81424 35.48964 21 ft 22 kts 216°
2026-05-08 08:50 33.81289 35.48848 21 ft 25 kts 215°
2026-05-08 08:50 33.81139 35.48720 23 ft 27 kts 215°
2026-05-08 08:50 33.80979 35.48583 27 ft 30 kts 215°
2026-05-08 08:50 33.80802 35.48432 26 ft 32 kts 215°
2026-05-08 08:51 33.80611 35.48274 24 ft 33 kts 212°
2026-05-08 08:51 33.80412 35.48177 26 ft 29 kts 195°
2026-05-08 08:51 33.80298 35.48233 24 ft 7 kts 107°
2026-05-08 08:51 33.80300 35.48263 22 ft 5 kts 83°
2026-05-08 08:52 33.80313 35.48339 19 ft 15 kts 78°
2026-05-08 08:52 33.80358 35.48482 23 ft 21 kts 53°
2026-05-08 08:52 33.80501 35.48618 23 ft 46 kts 33°
2026-05-08 08:52 33.81047 35.49036 19 ft 138 kts 32°
2026-05-08 08:53 33.82042 35.49808 206 ft 188 kts 31°
2026-05-08 08:53 33.83125 35.50719 995 ft 199 kts 34°
2026-05-08 08:53 33.84171 35.51583 2323 ft 178 kts 31°
2026-05-08 08:53 33.85304 35.52465 2661 ft 210 kts 32°
2026-05-08 08:54 33.86541 35.53427 3263 ft 214 kts 32°
2026-05-08 08:54 33.87862 35.54457 3556 ft 244 kts 31°
2026-05-08 08:54 33.89371 35.55493 4069 ft 254 kts 21°
2026-05-08 08:54 33.91094 35.55945 4880 ft 256 kts 359°
2026-05-08 08:55 33.92825 35.55484 5832 ft 259 kts 334°
2026-05-08 08:55 33.94372 35.54338 6674 ft 265 kts 324°
2026-05-08 08:55 33.95862 35.52993 7523 ft 270 kts 322°
2026-05-08 08:55 33.97354 35.51604 8393 ft 273 kts 322°
2026-05-08 08:56 33.98861 35.50203 9254 ft 277 kts 321°
2026-05-08 08:56 34.00392 35.48786 10130 ft 279 kts 322°
2026-05-08 08:56 34.01991 35.47313 10440 ft 305 kts 322°
2026-05-08 08:56 34.03749 35.45696 10567 ft 334 kts 322°
2026-05-08 08:57 34.05673 35.43932 10774 ft 359 kts 322°
2026-05-08 08:57 34.07664 35.42108 11590 ft 362 kts 322°
2026-05-08 08:57 34.09668 35.40275 12469 ft 365 kts 322°
2026-05-08 08:57 34.11698 35.38419 13265 ft 369 kts 322°
2026-05-08 08:58 34.13751 35.36541 14068 ft 372 kts 322°
2026-05-08 08:58 34.15822 35.34646 14764 ft 375 kts 322°
2026-05-08 08:58 34.17907 35.32737 15435 ft 379 kts 322°
2026-05-08 08:58 34.20008 35.30813 16092 ft 382 kts 322°
2026-05-08 08:59 34.22132 35.28866 16722 ft 386 kts 321°
2026-05-08 08:59 34.24270 35.26905 17394 ft 389 kts 321°
2026-05-08 08:59 34.26431 35.24921 18027 ft 392 kts 321°
2026-05-08 08:59 34.28602 35.22926 18618 ft 395 kts 321°
2026-05-08 09:00 34.30790 35.20914 19140 ft 398 kts 321°
2026-05-08 09:00 34.32997 35.18884 19666 ft 400 kts 321°
2026-05-08 09:00 34.35216 35.16842 20175 ft 403 kts 321°
2026-05-08 09:00 34.37447 35.14788 20672 ft 405 kts 321°
2026-05-08 09:01 34.39697 35.12714 21179 ft 408 kts 321°
2026-05-08 09:01 34.41961 35.10626 21699 ft 411 kts 321°
2026-05-08 09:01 34.44246 35.08538 22177 ft 415 kts 323°
2026-05-08 09:01 34.46650 35.06590 22712 ft 418 kts 326°
2026-05-08 09:02 34.49136 35.04759 23238 ft 422 kts 327°
2026-05-08 09:02 34.51678 35.02961 23749 ft 425 kts 328°
2026-05-08 09:02 34.54241 35.01167 24279 ft 426 kts 328°
2026-05-08 09:02 34.56807 34.99369 24762 ft 429 kts 328°
2026-05-08 09:03 34.59386 34.97550 25297 ft 430 kts 328°
2026-05-08 09:03 34.61970 34.95721 25819 ft 432 kts 328°
2026-05-08 09:03 34.64560 34.93879 26312 ft 434 kts 328°
2026-05-08 09:03 34.67168 34.92020 26818 ft 436 kts 328°
2026-05-08 09:04 34.69789 34.90149 27315 ft 439 kts 328°
2026-05-08 09:04 34.72416 34.88271 27789 ft 441 kts 328°
2026-05-08 09:04 34.75067 34.86377 28266 ft 443 kts 328°
2026-05-08 09:04 34.77717 34.84480 28732 ft 446 kts 328°
2026-05-08 09:05 34.80396 34.82561 29206 ft 448 kts 327°
2026-05-08 09:05 34.83097 34.80626 29587 ft 452 kts 327°
2026-05-08 09:05 34.85808 34.78682 30001 ft 455 kts 327°
2026-05-08 09:05 34.88536 34.76724 30395 ft 457 kts 328°
2026-05-08 09:06 34.91258 34.74769 30911 ft 453 kts 328°
2026-05-08 09:06 34.93947 34.72839 31680 ft 442 kts 328°
2026-05-08 09:06 34.96527 34.70985 32826 ft 422 kts 329°
2026-05-08 09:06 34.99007 34.69201 33771 ft 409 kts 329°
2026-05-08 09:07 35.01420 34.67463 34481 ft 400 kts 329°
2026-05-08 09:07 35.03807 34.65742 34842 ft 398 kts 329°
2026-05-08 09:07 35.06172 34.64035 35195 ft 395 kts 329°
2026-05-08 09:07 35.08531 34.62334 35582 ft 393 kts 329°
2026-05-08 09:08 35.10870 34.60644 35891 ft 392 kts 328°
2026-05-08 09:08 35.13194 34.58964 35964 ft 396 kts 328°
2026-05-08 09:08 35.17957 34.55510 35986 ft 400 kts 328°
2026-05-08 09:09 35.22731 34.52034 35989 ft 400 kts 328°
2026-05-08 09:09 35.27503 34.48563 35990 ft 400 kts 328°
2026-05-08 09:10 35.32271 34.45098 35985 ft 398 kts 328°
2026-05-08 09:10 35.37020 34.41643 35992 ft 397 kts 328°
2026-05-08 09:11 35.41766 34.38185 35996 ft 397 kts 328°
2026-05-08 09:11 35.46509 34.34725 35992 ft 397 kts 328°
2026-05-08 09:12 35.51249 34.31261 35995 ft 397 kts 328°
2026-05-08 09:12 35.55990 34.27794 35997 ft 397 kts 328°
2026-05-08 09:13 35.60728 34.24323 35995 ft 397 kts 328°
2026-05-08 09:13 35.65471 34.20844 35993 ft 397 kts 328°
2026-05-08 09:14 35.70190 34.17376 35997 ft 396 kts 328°
2026-05-08 09:14 35.74907 34.13906 35997 ft 395 kts 328°
2026-05-08 09:15 35.79618 34.10436 36002 ft 395 kts 328°
2026-05-08 09:15 35.84326 34.06961 36004 ft 395 kts 328°
2026-05-08 09:16 35.89034 34.03479 36002 ft 395 kts 328°
2026-05-08 09:16 35.93734 33.99957 36000 ft 396 kts 327°
2026-05-08 09:17 35.98425 33.96411 36002 ft 397 kts 327°
2026-05-08 09:17 36.03118 33.92864 35995 ft 395 kts 327°
2026-05-08 09:18 36.07793 33.89329 36003 ft 395 kts 327°
2026-05-08 09:18 36.12470 33.85788 36003 ft 395 kts 327°
2026-05-08 09:19 36.17147 33.82243 36017 ft 395 kts 327°
2026-05-08 09:19 36.21829 33.78687 36011 ft 396 kts 327°
2026-05-08 09:20 36.26513 33.75122 36020 ft 396 kts 327°
2026-05-08 09:20 36.31187 33.71538 36011 ft 396 kts 327°
2026-05-08 09:21 36.35863 33.67950 36004 ft 396 kts 327°
2026-05-08 09:23 36.52178 33.55410 36027 ft 396 kts 327°
2026-05-08 09:23 36.56821 33.51830 36028 ft 396 kts 327°
2026-05-08 09:24 36.61488 33.48227 36033 ft 396 kts 327°
2026-05-08 09:24 36.66157 33.44617 36032 ft 396 kts 327°
2026-05-08 09:25 36.70820 33.41007 36036 ft 396 kts 327°
2026-05-08 09:25 36.75497 33.37380 36050 ft 397 kts 327°
2026-05-08 09:26 36.80182 33.33743 36049 ft 398 kts 327°
2026-05-08 09:26 36.84864 33.30101 36056 ft 397 kts 327°
2026-05-08 09:27 36.89193 33.25869 36049 ft 397 kts 315°
2026-05-08 09:27 36.92921 33.20794 36058 ft 398 kts 313°
2026-05-08 09:28 36.96594 33.15632 36063 ft 398 kts 313°
2026-05-08 09:28 37.00279 33.10527 36069 ft 395 kts 314°
2026-05-08 09:29 37.03976 33.05448 36074 ft 396 kts 314°
2026-05-08 09:29 37.07681 33.00360 36082 ft 396 kts 314°
2026-05-08 09:30 37.11390 32.95261 36075 ft 396 kts 314°
2026-05-08 09:30 37.15095 32.90163 36081 ft 397 kts 314°
2026-05-08 09:31 37.18797 32.85054 36078 ft 394 kts 313°
2026-05-08 09:31 37.22476 32.79974 36082 ft 394 kts 314°
2026-05-08 09:32 37.26148 32.74893 36085 ft 394 kts 313°
2026-05-08 09:32 37.29820 32.69806 36086 ft 393 kts 314°
2026-05-08 09:33 37.33476 32.64732 36081 ft 393 kts 313°
2026-05-08 09:33 37.37132 32.59650 36082 ft 392 kts 313°
2026-05-08 09:34 37.40781 32.54569 36087 ft 392 kts 313°
2026-05-08 09:34 37.44425 32.49479 36088 ft 392 kts 313°
2026-05-08 09:35 37.48054 32.44372 36094 ft 392 kts 313°
2026-05-08 09:35 37.51687 32.39272 36094 ft 392 kts 313°
2026-05-08 09:36 37.55321 32.34176 36089 ft 392 kts 313°
2026-05-08 09:36 37.58952 32.29078 36089 ft 391 kts 313°
2026-05-08 09:37 37.62580 32.23981 36090 ft 392 kts 313°
2026-05-08 09:37 37.66210 32.18874 36095 ft 391 kts 313°
2026-05-08 09:38 37.69841 32.13774 36098 ft 392 kts 313°
2026-05-08 09:38 37.73465 32.08686 36107 ft 391 kts 313°
2026-05-08 09:39 37.77100 32.03579 36095 ft 392 kts 313°
2026-05-08 09:39 37.80735 31.98465 36104 ft 392 kts 313°
2026-05-08 09:40 37.84366 31.93347 36102 ft 392 kts 312°
2026-05-08 09:40 37.87996 31.88222 36105 ft 392 kts 312°
2026-05-08 09:41 37.91618 31.83100 36106 ft 391 kts 312°
2026-05-08 09:41 37.95243 31.77966 36100 ft 392 kts 312°
2026-05-08 09:42 37.98866 31.72825 36105 ft 392 kts 312°
2026-05-08 09:42 38.02493 31.67671 36104 ft 392 kts 312°
2026-05-08 09:43 38.06119 31.62512 36102 ft 392 kts 312°
2026-05-08 09:43 38.09734 31.57344 36111 ft 392 kts 311°
2026-05-08 09:44 38.13324 31.52160 36093 ft 392 kts 311°
2026-05-08 09:44 38.16915 31.46980 36100 ft 392 kts 311°
2026-05-08 09:45 38.20520 31.41784 36098 ft 392 kts 311°
2026-05-08 09:45 38.24118 31.36592 36096 ft 392 kts 311°
2026-05-08 09:46 38.27713 31.31395 36099 ft 392 kts 311°
2026-05-08 09:46 38.31304 31.26196 36092 ft 392 kts 311°
2026-05-08 09:47 38.34902 31.20979 36084 ft 393 kts 311°
2026-05-08 09:47 38.38496 31.15758 36092 ft 393 kts 310°
2026-05-08 09:48 38.42096 31.10523 36091 ft 393 kts 310°
2026-05-08 09:48 38.45696 31.05283 36079 ft 393 kts 310°
2026-05-08 09:49 38.49682 31.00525 36080 ft 396 kts 321°
2026-05-08 09:49 38.54188 30.96492 36078 ft 396 kts 322°
2026-05-08 09:50 38.58744 30.92520 36078 ft 398 kts 322°
2026-05-08 09:50 38.63287 30.88503 36077 ft 398 kts 322°
2026-05-08 09:51 38.67816 30.84465 36082 ft 398 kts 322°
2026-05-08 09:51 38.72343 30.80414 36085 ft 398 kts 321°
2026-05-08 09:52 38.76873 30.76353 36081 ft 398 kts 321°
2026-05-08 09:52 38.81401 30.72287 36077 ft 398 kts 321°
2026-05-08 09:53 38.86095 30.68513 36077 ft 401 kts 327°
2026-05-08 09:53 38.91036 30.65253 36074 ft 402 kts 328°
2026-05-08 09:54 38.96029 30.62035 36072 ft 402 kts 328°
2026-05-08 09:54 39.01012 30.58790 36075 ft 402 kts 328°
2026-05-08 09:55 39.06816 30.54978 36069 ft 402 kts 328°
2026-05-08 09:55 39.10964 30.52246 36067 ft 403 kts 328°
2026-05-08 09:56 39.15928 30.48971 36059 ft 402 kts 328°
2026-05-08 09:56 39.20913 30.45677 36064 ft 403 kts 328°
2026-05-08 09:57 39.28381 30.40734 36060 ft 403 kts 328°
2026-05-08 09:57 39.33369 30.37425 36056 ft 405 kts 328°
2026-05-08 09:58 39.38367 30.34106 36058 ft 405 kts 328°
2026-05-08 09:58 39.43374 30.30776 36054 ft 406 kts 328°
2026-05-08 09:59 39.48413 30.27508 36052 ft 408 kts 330°
2026-05-08 09:59 39.53633 30.24618 36045 ft 410 kts 332°
2026-05-08 10:00 39.58896 30.21835 36048 ft 410 kts 332°
2026-05-08 10:00 39.64155 30.19040 36048 ft 409 kts 332°
2026-05-08 10:01 39.69411 30.16227 36051 ft 410 kts 332°
2026-05-08 10:01 39.74671 30.13402 36039 ft 410 kts 332°
2026-05-08 10:02 39.79932 30.10569 36037 ft 412 kts 331°
2026-05-08 10:02 39.85225 30.07713 36028 ft 413 kts 332°
2026-05-08 10:03 39.90526 30.04851 36020 ft 413 kts 331°
2026-05-08 10:03 39.95819 30.01989 36025 ft 413 kts 331°
2026-05-08 10:04 40.01073 29.99135 36006 ft 414 kts 331°
2026-05-08 10:04 40.06371 29.96252 36005 ft 414 kts 331°
2026-05-08 10:05 40.11689 29.93360 36012 ft 414 kts 331°
2026-05-08 10:05 40.16990 29.90474 36011 ft 414 kts 331°
2026-05-08 10:06 40.22305 29.87575 36002 ft 415 kts 331°
2026-05-08 10:06 40.27623 29.84671 35995 ft 415 kts 331°
2026-05-08 10:07 40.32939 29.81760 35992 ft 416 kts 331°
2026-05-08 10:07 40.38241 29.78853 36015 ft 418 kts 331°
2026-05-08 10:08 40.43577 29.75924 35985 ft 418 kts 331°
2026-05-08 10:08 40.48933 29.72979 35982 ft 418 kts 331°
2026-05-08 10:09 40.54294 29.70026 35981 ft 418 kts 332°
2026-05-08 10:09 40.59645 29.67071 35984 ft 418 kts 331°
2026-05-08 10:10 40.64996 29.64102 35982 ft 418 kts 330°
2026-05-08 10:10 40.69857 29.60134 35984 ft 410 kts 318°
2026-05-08 10:11 40.74248 29.55390 35984 ft 409 kts 316°
2026-05-08 10:11 40.78635 29.50591 35986 ft 411 kts 316°
2026-05-08 10:12 40.83062 29.45834 35989 ft 412 kts 317°
2026-05-08 10:12 40.87518 29.41079 35990 ft 412 kts 317°
2026-05-08 10:13 40.91963 29.36335 35989 ft 412 kts 317°
2026-05-08 10:13 40.96417 29.31575 35991 ft 412 kts 317°
2026-05-08 10:14 41.00851 29.26827 35987 ft 411 kts 317°
2026-05-08 10:14 41.05293 29.22059 35985 ft 414 kts 317°
2026-05-08 10:15 41.09761 29.17255 35983 ft 414 kts 316°
2026-05-08 10:15 41.13950 29.12108 35983 ft 409 kts 306°
2026-05-08 10:16 41.17184 29.05914 35966 ft 409 kts 301°
2026-05-08 10:16 41.20190 28.99619 35962 ft 410 kts 301°
2026-05-08 10:17 41.23282 28.93262 35961 ft 412 kts 301°
2026-05-08 10:17 41.26416 28.86903 35962 ft 412 kts 301°
2026-05-08 10:18 41.29554 28.80555 35962 ft 412 kts 301°
2026-05-08 10:18 41.32694 28.74193 35963 ft 412 kts 301°
2026-05-08 10:19 41.35838 28.67810 35961 ft 414 kts 301°
2026-05-08 10:20 41.40546 28.58221 35960 ft 414 kts 301°
2026-05-08 10:20 41.43695 28.51794 35962 ft 414 kts 301°
2026-05-08 10:21 41.46837 28.45365 35965 ft 416 kts 300°
2026-05-08 10:21 41.50334 28.39214 35963 ft 420 kts 309°
2026-05-08 10:22 41.54459 28.33681 35972 ft 422 kts 312°
2026-05-08 10:22 41.58667 28.28233 35961 ft 422 kts 311°
2026-05-08 10:23 41.62842 28.22752 35959 ft 421 kts 311°
2026-05-08 10:23 41.66969 28.17275 35955 ft 421 kts 311°
2026-05-08 10:24 41.71112 28.11753 35950 ft 421 kts 311°
2026-05-08 10:24 41.75243 28.06236 35951 ft 421 kts 311°
2026-05-08 10:25 41.79376 28.00707 35949 ft 421 kts 311°
2026-05-08 10:25 41.83511 27.95165 35948 ft 421 kts 311°
2026-05-08 10:26 41.87635 27.89624 35944 ft 420 kts 311°
2026-05-08 10:26 41.91753 27.84085 35943 ft 420 kts 311°
2026-05-08 10:27 41.95884 27.78517 35940 ft 423 kts 311°
2026-05-08 10:27 41.99999 27.72903 35939 ft 422 kts 309°
2026-05-08 10:28 42.03715 27.66851 35942 ft 419 kts 304°
2026-05-08 10:28 42.07258 27.60642 35936 ft 420 kts 304°
2026-05-08 10:29 42.10825 27.54411 35937 ft 422 kts 304°
2026-05-08 10:29 42.14419 27.48174 35934 ft 422 kts 304°
2026-05-08 10:30 42.18018 27.41933 35932 ft 422 kts 304°
2026-05-08 10:30 42.21604 27.35707 35937 ft 422 kts 304°
2026-05-08 10:31 42.25200 27.29445 35925 ft 423 kts 304°
2026-05-08 10:31 42.28797 27.23172 35922 ft 424 kts 304°
2026-05-08 10:32 42.32394 27.16884 35920 ft 424 kts 304°
2026-05-08 10:32 42.35991 27.10584 35923 ft 424 kts 304°
2026-05-08 10:33 42.39594 27.04258 35916 ft 426 kts 304°
2026-05-08 10:33 42.43203 26.97911 35915 ft 427 kts 304°
2026-05-08 10:34 42.46811 26.91551 35913 ft 427 kts 304°
2026-05-08 10:34 42.50419 26.85177 35912 ft 427 kts 303°
2026-05-08 10:35 42.54011 26.78764 35921 ft 428 kts 303°
2026-05-08 10:35 42.57600 26.72351 35920 ft 428 kts 303°
2026-05-08 10:36 42.61197 26.65942 35924 ft 428 kts 303°
2026-05-08 10:36 42.64798 26.59525 35926 ft 429 kts 303°
2026-05-08 10:37 42.68412 26.53070 35926 ft 430 kts 303°
2026-05-08 10:37 42.72023 26.46609 35923 ft 430 kts 303°
2026-05-08 10:38 42.75632 26.40139 35923 ft 430 kts 303°
2026-05-08 10:38 42.79225 26.33680 35923 ft 432 kts 303°
2026-05-08 10:39 42.82844 26.27161 35918 ft 433 kts 303°
2026-05-08 10:39 42.86467 26.20620 35914 ft 433 kts 303°
2026-05-08 10:40 42.90075 26.14092 35909 ft 431 kts 303°
2026-05-08 10:40 42.93683 26.07551 35910 ft 433 kts 303°
2026-05-08 10:41 42.97298 26.00980 35894 ft 434 kts 303°
2026-05-08 10:41 43.00921 25.94381 35889 ft 435 kts 303°
2026-05-08 10:42 43.04502 25.87782 35886 ft 434 kts 302°
2026-05-08 10:42 43.08112 25.81133 35882 ft 440 kts 302°
2026-05-08 10:43 43.11783 25.74387 35879 ft 444 kts 303°
2026-05-08 10:43 43.15464 25.67625 35881 ft 444 kts 303°
2026-05-08 10:44 43.19142 25.60852 35879 ft 444 kts 302°
2026-05-08 10:44 43.22814 25.54072 35896 ft 444 kts 302°
2026-05-08 10:45 43.26468 25.47313 35885 ft 442 kts 302°
2026-05-08 10:45 43.30117 25.40545 35889 ft 442 kts 302°
2026-05-08 10:46 43.33759 25.33773 35893 ft 442 kts 302°
2026-05-08 10:46 43.37403 25.26982 35898 ft 444 kts 302°
2026-05-08 10:47 43.41056 25.20160 35900 ft 444 kts 302°
2026-05-08 10:47 43.44710 25.13321 35900 ft 444 kts 302°
2026-05-08 10:48 43.48353 25.06486 35905 ft 444 kts 302°
2026-05-08 10:48 43.51993 24.99614 35905 ft 445 kts 302°
2026-05-08 10:49 43.55618 24.92713 35906 ft 446 kts 302°
2026-05-08 10:49 43.59253 24.85818 35914 ft 445 kts 302°
2026-05-08 10:50 43.62885 24.78937 35905 ft 444 kts 302°
2026-05-08 10:50 43.66519 24.72036 35924 ft 446 kts 302°
2026-05-08 10:51 43.70162 24.65104 35905 ft 446 kts 302°
2026-05-08 10:51 43.74064 24.58419 35924 ft 450 kts 307°
2026-05-08 10:52 43.78309 24.52059 35918 ft 451 kts 308°
2026-05-08 10:52 43.82594 24.45718 35919 ft 452 kts 308°
2026-05-08 10:53 43.86855 24.39343 35914 ft 452 kts 308°
2026-05-08 10:53 43.91079 24.32977 35916 ft 452 kts 308°
2026-05-08 10:54 43.95313 24.26575 35923 ft 451 kts 308°
2026-05-08 10:54 43.99542 24.20165 35913 ft 451 kts 308°
2026-05-08 10:55 44.03771 24.13741 35913 ft 451 kts 308°
2026-05-08 10:55 44.07995 24.07311 35909 ft 451 kts 307°
2026-05-08 10:56 44.12217 24.00868 35914 ft 452 kts 307°
2026-05-08 10:56 44.16451 23.94393 35906 ft 453 kts 307°
2026-05-08 10:57 44.20686 23.87903 35905 ft 453 kts 307°
2026-05-08 10:57 44.27029 23.78152 35902 ft 453 kts 307°
2026-05-08 10:58 44.31238 23.71612 35908 ft 454 kts 307°
2026-05-08 10:58 44.35445 23.65071 35904 ft 454 kts 307°
2026-05-08 10:59 44.39660 23.58531 35904 ft 454 kts 307°
2026-05-08 10:59 44.43878 23.51984 35901 ft 454 kts 307°
2026-05-08 11:00 44.48100 23.45411 35897 ft 455 kts 307°
2026-05-08 11:00 44.52313 23.38839 35909 ft 455 kts 307°
2026-05-08 11:01 44.56526 23.32268 35891 ft 453 kts 307°
2026-05-08 11:01 44.60730 23.25699 35892 ft 453 kts 307°
2026-05-08 11:02 44.67039 23.15816 35881 ft 454 kts 307°
2026-05-08 11:03 44.71246 23.09204 35901 ft 454 kts 307°
2026-05-08 11:03 44.75447 23.02586 35896 ft 454 kts 307°
2026-05-08 11:04 44.79644 22.95958 35880 ft 454 kts 307°
2026-05-08 11:04 44.83836 22.89321 35888 ft 454 kts 307°
2026-05-08 11:05 44.88010 22.82673 35887 ft 454 kts 307°
2026-05-08 11:05 44.92161 22.75993 35891 ft 454 kts 307°
2026-05-08 11:06 44.96313 22.69318 35910 ft 453 kts 307°
2026-05-08 11:06 45.00468 22.62638 35897 ft 454 kts 306°
2026-05-08 11:07 45.04625 22.55943 35897 ft 454 kts 306°
2026-05-08 11:07 45.08771 22.49249 35900 ft 454 kts 307°
2026-05-08 11:08 45.12915 22.42543 35921 ft 454 kts 307°
2026-05-08 11:08 45.17039 22.35853 35911 ft 453 kts 307°
2026-05-08 11:09 45.21170 22.29134 35910 ft 453 kts 307°
2026-05-08 11:09 45.25301 22.22397 35911 ft 453 kts 306°
2026-05-08 11:10 45.29426 22.15656 35921 ft 453 kts 306°
2026-05-08 11:10 45.33547 22.08905 35912 ft 453 kts 306°
2026-05-08 11:11 45.37658 22.02154 35910 ft 453 kts 306°
2026-05-08 11:11 45.41762 21.95384 35913 ft 452 kts 306°
2026-05-08 11:12 45.45838 21.88594 35925 ft 452 kts 306°
2026-05-08 11:12 45.49672 21.81561 35915 ft 449 kts 301°
2026-05-08 11:13 45.53263 21.74313 35912 ft 448 kts 301°
2026-05-08 11:13 45.56838 21.67047 35911 ft 448 kts 301°
2026-05-08 11:14 45.60423 21.59798 35908 ft 448 kts 301°